Regional Weather Roundup
Issued by NWS

Home | Current Version | Previous Version | Text Only | Print | Product List | Glossary On
Versions: 1 2 3 4 5 6 7 8 9 10 11 12 13 14 15 16 17 18 19 20 21 22 23 24 25 26 27 28 29 30 31 32 33 34 35 36 37 38 39 40 41 42 43 44 45 46 47 48 49 50
000
ASUS43 KMPX 260101
RWRMN
WEATHER ROUNDUP FOR MINNESOTA
NATIONAL WEATHER SERVICE TWIN CITIES/CHANHASSEN MN
800 PM CDT SAT OCT 25 2014


NOTE: "FAIR" INDICATES FEW OR NO CLOUDS BELOW 12,000 FEET WITH NO
SIGNIFICANT WEATHER AND/OR OBSTRUCTIONS TO VISIBILITY. N/A MEANS
CURRENT SKY AND/OR WEATHER CONDITIONS ARE NOT AVAILABLE.

MNZ060>063-068>070-260200-
   Twin Cities Metro

CITY           SKY/WX    TMP DP  RH WIND       PRES   REMARKS
TWIN CITIES    CLEAR     52  25  35 NW7       30.05R
ST PAUL        CLEAR     53  26  35 W10       30.05R
CRYSTAL        CLEAR     54  24  31 W5        30.04R
BLAINE         CLEAR     52  28  40 W8        30.04S
LAKEVILLE      CLEAR     48  27  43 W5        30.05S
EDEN PRAIRIE   CLEAR     51  27  39 W7        30.04S
SOUTH ST PAUL  CLEAR     55  24  31 W6        30.04R
LAKE ELMO      FAIR      50  28  43 NW8       30.04S
$$
MNZ001>005-007-008-013>017-022>024-027-028-260200-
   Northwest Minnesota

CITY           SKY/WX    TMP DP  RH WIND       PRES   REMARKS
BEMIDJI        CLEAR     45  24  42 W5        30.02S
HALLOCK        CLEAR     46  23  39 CALM      29.99F
ROSEAU         CLEAR     50  27  40 W5        29.98S
WARROAD        CLEAR     45  28  53 W6        29.98S
THIEF RVR FALL CLEAR     46  27  46 W6        30.01F
CROOKSTON      CLEAR     45  25  45 W6        30.02F
FOSSTON        CLEAR     36  21  55 CALM      30.03F
DETROIT LAKES  CLEAR     46  28  49 CALM      30.05S
MOORHEAD       CLEAR     48  21  34 CALM      30.05S
PARK RAPIDS    CLEAR     41  23  48 W6        30.03F
MAHNOMEN       FAIR      46  23  41 W5        30.03S
$$
MNZ006-009>011-018-025>026-260200-
   North Central Minnesota

CITY           SKY/WX    TMP DP  RH WIND       PRES   REMARKS
BAUDETTE       CLEAR     44  27  51 CALM      29.97S
FLAG ISLAND    CLEAR     48  30  49 W7        29.94F
INTL FALLS     CLEAR     44  28  53 W8        29.95R
WASKISH        CLEAR     48  37  66 CALM      29.99S
BIG FORK       CLEAR     46  25  42 W3        29.99S
LONGVILLE      CLEAR     39  28  65 CALM      30.02S
GRAND RAPIDS   CLEAR     48  25  40 W7        30.00S
CRANE LAKE     CLEAR     46  27  46 CALM      29.96
ORR            CLEAR     45  25  45 W3        29.94S
COOK           CLEAR     43  27  52 W5        29.97R
WALKER         FAIR      47  25  41 W5        30.02S
$$
MNZ012-019>021-037-260200-
   Northeast Minnesota

CITY           SKY/WX    TMP DP  RH WIND       PRES   REMARKS
DULUTH         CLEAR     50  25  37 W10       29.96R
ELY            CLEAR     46  25  42 W13G22    29.93R
HIBBING        CLEAR     48  25  40 W6        29.98R
EVELETH        CLEAR     46  27  46 W8        29.98R
DULUTH HARBOR  CLEAR     54  30  40 W14       29.98R
TWO HARBORS    CLEAR     54  10  17 W10       29.93R
SILVER BAY     CLEAR     48  27  43 SW3       29.92R
GRAND MARAIS     N/A     51  29  42 VRB7G23   29.85R
G MARAIS ARPRT CLEAR     45  25  45 W15G22    29.86R
$$
MNZ029>031-032-039>041-046>048-054>057-064-260200-
   West Central Minnesota

CITY           SKY/WX    TMP DP  RH WIND       PRES   REMARKS
FERGUS FALLS   CLEAR     48  19  32 CALM      30.06F
WHEATON        CLEAR     48  27  43 CALM      30.08F
MORRIS         CLEAR     52  27  37 CALM      30.07S
ALEXANDRIA     CLEAR     45  27  49 W6        30.07F
ELBOW LAKE     FAIR      46  29  49 CALM      30.06S
WADENA         CLEAR     46  27  46 W5        30.04S
GLENWOOD       CLEAR     46  27  46 W6        30.07S
APPLETON       CLEAR     48  28  46 N3        30.07S
BENSON         CLEAR     46  30  53 CALM      30.07F
ORTONVILLE     CLEAR     52  30  43 NE3       30.06F
MADISON        CLEAR     54  28  37 CALM      30.07F
WILLMAR        FAIR      48  28  46 CALM      30.09S
$$
MNZ033>034-036-042>043-049>051-058-059-260200-
   Central Minnesota

CITY           SKY/WX    TMP DP  RH WIND       PRES   REMARKS
ST CLOUD       CLEAR     50  26  39 W7        30.05S
SAUK CENTRE    FAIR      45  27  50 W3        30.06F
PAYNESVILLE    CLEAR     39  27  63 SW5       30.07S
AITKIN         CLEAR     48  23  37 CALM      30.01S
PINE RIVER     CLEAR     41  28  60 CALM      30.06S
BRAINERD       CLEAR     49  25  39 W5        30.03F
STAPLES        CLEAR     39  28  65 W5        30.04F
LONG PRAIRIE   FAIR      45  28  53 SW3       30.06S
LITTLE FALLS   CLEAR     45  28  53 CALM      30.05S
LITCHFIELD     CLEAR     48  27  43 W3        30.08R
BUFFALO        CLEAR     49  28  43 CALM      30.06S
MAPLE LAKE     CLEAR     46  32  58 W3        30.06S
$$
MNZ037-044-045-052-053-260200-
   East Central Minnesota

CITY           SKY/WX    TMP DP  RH WIND       PRES   REMARKS
PRINCETON      CLEAR     46  28  49 CALM      30.04F
MORA           CLEAR     46  28  49 W3        30.04S
CAMBRIDGE      CLEAR     54  34  47 CALM      30.02S
RUSH CITY      PTCLDY    46  28  49 W3        30.03S
MOOSE LAKE     CLEAR     50  27  40 W5        29.99S
HINCKLEY       FAIR      50  28  43 CALM      30.01S
CLOQUET        CLEAR     50  21  32 W10G18    29.98S
MCGREGOR       CLEAR     50  27  40 W6        30.02S
$$
MNZ071>073-080-081-089-090-097-098-260200-
   Southwest Minnesota

CITY           SKY/WX    TMP DP  RH WIND       PRES   REMARKS
MONTEVIDEO     CLEAR     48  28  46 CALM      30.08F
GRANITE FALLS  CLEAR     48  32  52 CALM      30.09S
CANBY          CLEAR     49  33  53 CALM      30.08F
MARSHALL       CLEAR     50  27  40 CALM      30.07S
REDWOOD FALLS  CLEAR     55  29  36 NW5       30.07F
OLIVIA         CLEAR     48  32  53 CALM      30.07S
PIPESTONE      CLEAR     52  32  46 E5        30.08S
WINDOM         CLEAR     45  30  57 CALM      30.09S
WORTHINGTON    CLEAR     50  28  43 NE3       30.09S
JACKSON        CLEAR     48  30  49 CALM      30.09S
TRACY          CLEAR     47  32  55 CALM      30.08F
SLAYTON        CLEAR     47  32  55 CALM      30.09S
$$
MNZ065>067-074>077-082>085-091>093-260200-
   South Central Minnesota

CITY           SKY/WX    TMP DP  RH WIND       PRES   REMARKS
MANKATO        CLEAR     54  27  35 NW6       30.07S
NEW ULM        CLEAR     52  30  43 NW6       30.07S
ST JAMES       CLEAR     48  30  49 NW3       30.09S
FAIRMONT       CLEAR     52  21  30 NW6       30.08R
GLENCOE        CLEAR     52  28  40 W6        30.06S
FARIBAULT      CLEAR     48  27  43 W5        30.06S
OWATONNA       CLEAR     43  30  61 W3        30.06S
WASECA         CLEAR     45  25  45 W6        30.08S
ALBERT LEA     CLEAR     48  32  53 CALM      30.07R
$$
MNZ078>079-086>088-094>096-260200-
   Southeast Minnesota

CITY           SKY/WX    TMP DP  RH WIND       PRES   REMARKS
ROCHESTER      CLEAR     49  30  48 W7        30.06R
RED WING         N/A     52  27  37 NW5       30.02S
STANTON        CLEAR     51  26  37 CALM      30.03F
DODGE CENTER   CLEAR     52  28  40 NW9       30.05S
WINONA         CLEAR     52  32  46 NW8       30.02S
AUSTIN         CLEAR     52  30  43 NW7       30.06S
PRESTON        CLEAR     48  32  53 NW8       30.04S
$$
ABBREVIATIONS USED IN REMARKS
   TC - TEMPERATURES IN CELSIUS
  WCI - WIND CHILL INDEX
   HX - HEAT INDEX
  VSB - VISIBILITY
$$



USA.gov is the U.S. government's official web portal to all federal, state and local government web resources and services.